This is the latest recevied weather packets stored in our database for station/object KC5CAM-13. If no packets are shown the sender has not sent any weather packets the latest 10 day(s).
| Time | Temp. | Humidity | Pressure | Rain* | Wind** | Luminosity | Snow |
|---|---|---|---|---|---|---|---|
| 1777410416 | 26.67° C | 84% | 1009.7 hPa | 0 mm | - | 10 W/m² | - |
| 1777410115 | 26.67° C | 84% | 1010.1 hPa | 0 mm | - | 12 W/m² | - |
| 1777409810 | 26.67° C | 83% | 1010.3 hPa | 0 mm | - | 13 W/m² | - |
| 1777409506 | 26.67° C | 83% | 1010.1 hPa | 0 mm | - | 15 W/m² | - |
| 1777409202 | 27.22° C | 83% | 1010.6 hPa | 0 mm | - | 17 W/m² | - |
| 1777408898 | 27.22° C | 82% | 1010 hPa | 0 mm | - | 20 W/m² | - |
| 1777408595 | 27.22° C | 82% | 1010.3 hPa | 0 mm | - | 21 W/m² | - |
| 1777408290 | 27.22° C | 82% | 1010.4 hPa | 0 mm | - | 22 W/m² | - |
| 1777407990 | 27.22° C | 83% | 1009.9 hPa | 0 mm | - | 25 W/m² | - |
| 1777407687 | 27.22° C | 82% | 1009.9 hPa | 0 mm | - | 29 W/m² | - |
| 1777407388 | 27.22° C | 81% | 1010.3 hPa | 0 mm | - | 29 W/m² | - |
| 1777407088 | 27.22° C | 81% | 1010.2 hPa | 0 mm | - | 33 W/m² | - |
| 1777406783 | 27.22° C | 81% | 1009.6 hPa | 0 mm | - | 32 W/m² | - |
| 1777406478 | 27.78° C | 81% | 1009.4 hPa | 0 mm | - | 33 W/m² | - |
| 1777406174 | 27.78° C | 81% | 1009.9 hPa | 0 mm | - | 32 W/m² | - |
| 1777405869 | 27.78° C | 80% | 1010.1 hPa | 0 mm | - | 24 W/m² | - |
| 1777405565 | 27.78° C | 80% | 1010 hPa | 0 mm | - | 35 W/m² | - |
| 1777405263 | 27.78° C | 79% | 1010.2 hPa | 0 mm | - | 80 W/m² | - |
| 1777404962 | 28.33° C | 78% | 1009.9 hPa | 0 mm | - | 127 W/m² | - |
| 1777404651 | 28.33° C | 79% | 1009.8 hPa | 0 mm | - | 158 W/m² | - |
| 1777404348 | 28.89° C | 78% | 1009.7 hPa | 0 mm | - | 161 W/m² | - |
| 1777404045 | 28.89° C | 77% | 1010.3 hPa | 0 mm | - | 228 W/m² | - |
| 1777403740 | 29.44° C | 76% | 1010.6 hPa | 0 mm | - | 385 W/m² | - |
| 1777403439 | 30° C | 75% | 1010.6 hPa | 0 mm | - | 502 W/m² | - |
| 1777403138 | 30° C | 76% | 1011 hPa | 0 mm | - | 786 W/m² | - |
* Rain latest hour (hover to see other rain measurements)
** Current wind speed in m/s (hover to see current wind gust speed)